GW7039 Weather Reports


time (UTC)temp
F
wind
direction
speed
knots
gust
knots
rain 1hr
in
rain 24hr
in
rain mn
in
humidity
%
barometer
mb
20260505022842 62 165 2.6 2.6 0.00 0.21 0.21 77 1001.6
20260505022339 62 195 2.6 2.6 0.00 0.21 0.21 78 1001.4
20260505021836 62 189 2.6 3.5 0.00 0.21 0.21 77 1001.1
20260505021332 62 202 2.6 5.2 0.00 0.21 0.21 77 1000.9
20260505020828 62 171 1.7 5.2 0.00 0.21 0.21 77 1000.7
20260505020324 62 183 3.5 5.2 0.00 0.21 0.21 76 1000.5
20260505015821 62 137 3.5 3.5 0.00 0.21 0.21 76 1000.7
20260505015318 63 169 3.5 3.5 0.00 0.21 0.21 75 1000.5
20260505014815 63 201 3.5 6.1 0.00 0.21 0.21 75 1000.4
20260505014312 63 144 2.6 7.8 0.00 0.21 0.21 74 1000.3
20260505013809 63 173 5.2 7.8 0.00 0.21 0.21 75 1000.1
20260505013306 63 208 5.2 9.6 0.00 0.21 0.21 75 1000.2
20260505012804 63 191 4.3 7.8 0.00 0.21 0.21 77 1000.2
20260505012304 63 211 3.5 6.1 0.00 0.21 0.21 78 1000.2
20260505011757 63 194 6.1 12.2 0.00 0.21 0.21 78 1000.1
20260505011255 63 186 5.2 7.0 0.00 0.21 0.21 79 999.9
20260505010750 64 193 6.1 7.8 0.00 0.21 0.21 78 999.8
20260505010246 64 208 8.7 11.3 0.00 0.21 0.21 78 999.6
20260505005743 64 225 4.3 7.0 0.00 0.21 0.21 79 999.7
20260505005240 63 162 7.0 8.7 0.00 0.21 0.21 80 999.8
20260505004737 63 170 5.2 8.7 0.00 0.21 0.21 81 999.7
20260505004233 64 177 5.2 9.6 0.00 0.21 0.21 80 1000.0
20260505003731 64 128 4.3 7.8 0.00 0.21 0.21 80 999.7
20260505003228 63 149 3.5 6.1 0.00 0.21 0.21 80 999.0
20260505002725 64 163 3.5 6.1 0.00 0.21 0.21 79 998.9
20260505002222 64 156 6.1 7.8 0.00 0.21 0.21 79 998.9
20260505001719 63 157 2.6 9.6 0.00 0.21 0.21 81 998.8
20260505001217 63 149 5.2 7.8 0.00 0.21 0.21 82 998.9
20260505000714 62 191 4.3 9.6 0.00 0.21 0.21 83 999.0
20260505000212 62 148 7.0 8.7 0.00 0.21 0.21 87 999.1
20260504235708 61 155 2.6 3.5 0.00 0.21 0.21 88 999.2
20260504235204 60 166 1.7 1.7 0.00 0.21 0.21 89 999.0
20260504234702 60 99 0.9 1.7 0.00 0.21 0.21 89 999.0
20260504234159 60 137 3.5 5.2 0.00 0.21 0.21 89 999.0
20260504233654 60 115 0.9 2.6 0.00 0.21 0.21 89 999.1
20260504233150 60 74 0.9 0.9 0.00 0.21 0.21 87 999.1
20260504232648 59 87 2.6 3.5 0.00 0.21 0.21 87 999.3
20260504232145 60 97 1.7 3.5 0.31 0.21 0.21 88 999.4
20260504231642 60 92 0.0 3.5 0.78 0.21 0.21 88 999.5
20260504231138 62 153 3.5 5.2 0.92 0.15 0.15 84 1000.0
20260504230634 69 281 3.5 7.0 0.07 0.01 0.01 65 1000.2
20260504230133 72 308 3.5 7.8 0.00 0.00 0.00 55 999.6
20260504225631 73 349 3.5 6.1 0.00 0.00 0.00 51 999.0
20260504225127 73 155 0.9 1.7 0.00 0.00 0.00 51 998.8
20260504224624 73 179 2.6 5.2 0.00 0.00 0.00 50 999.0
20260504224120 73 196 3.5 7.8 0.00 0.00 0.00 49 999.0
20260504223618 74 166 5.2 12.2 0.00 0.00 0.00 48 998.6
20260504223113 75 168 5.2 11.3 0.00 0.00 0.00 48 999.0
20260504222610 76 194 7.8 12.2 0.00 0.00 0.00 46 999.0
20260504222108 76 203 9.6 13.9 0.00 0.00 0.00 44 998.7
20260504221605 77 213 5.2 9.6 0.00 0.00 0.00 42 999.0
20260504221102 77 215 7.8 13.0 0.00 0.00 0.00 41 998.8
20260504220558 77 178 7.0 12.2 0.00 0.00 0.00 41 998.9
20260504220055 79 210 7.8 9.6 0.00 0.00 0.00 40 999.1
20260504215552 79 194 9.6 13.0 0.00 0.00 0.00 38 999.0
20260504215049 79 230 3.5 7.0 0.00 0.00 0.00 38 998.9
20260504214545 79 177 7.8 13.0 0.00 0.00 0.00 38 999.0
20260504214042 80 181 8.7 12.2 0.00 0.00 0.00 36 999.1
20260504213538 80 263 10.4 18.2 0.00 0.00 0.00 36 999.0
20260504213035 79 174 7.0 15.6 0.00 0.00 0.00 36 999.1
20260504212531 78 224 7.8 13.0 0.00 0.00 0.00 37 999.2
20260504212028 80 196 10.4 18.2 0.00 0.00 0.00 37 999.1
20260504211525 80 179 7.0 11.3 0.00 0.00 0.00 38 999.5
20260504211022 79 230 9.6 19.1 0.00 0.00 0.00 37 999.5
20260504210519 79 142 5.2 8.7 0.00 0.00 0.00 39 999.5
20260504210016 79 211 7.8 12.2 0.00 0.00 0.00 37 999.5
20260504205514 78 176 6.1 19.1 0.00 0.00 0.00 39 999.5
20260504205012 78 164 7.8 14.8 0.00 0.00 0.00 38 999.6
20260504204509 78 211 8.7 14.8 0.00 0.00 0.00 38 999.6
20260504204008 79 227 7.8 12.2 0.00 0.00 0.00 36 999.8
20260504203506 79 223 10.4 13.0 0.00 0.00 0.00 35 999.7
20260504203002 79 191 6.1 9.6 0.00 0.00 0.00 35 999.6
20260504202458 81 222 9.6 11.3 0.00 0.00 0.00 33 999.7
20260504201955 80 261 8.7 11.3 0.00 0.00 0.00 34 999.7
20260504201453 79 182 6.1 8.7 0.00 0.00 0.00 38 999.7
20260504200950 79 164 5.2 9.6 0.00 0.00 0.00 38 999.6
20260504200447 79 213 3.5 8.7 0.00 0.00 0.00 38 999.9
20260504195943 79 210 7.8 11.3 0.00 0.00 0.00 37 1000.1
20260504195439 78 209 5.2 13.9 0.00 0.00 0.00 39 1000.1
20260504194936 80 188 3.5 9.6 0.00 0.00 0.00 38 1000.2
20260504194432 78 180 5.2 8.7 0.00 0.00 0.00 38 1000.4
20260504193928 79 205 5.2 9.6 0.00 0.00 0.00 37 1000.4
20260504193425 78 230 4.3 7.0 0.00 0.00 0.00 34 1000.5
20260504192924 78 250 4.3 9.6 0.00 0.00 0.00 37 1000.5
20260504192421 78 218 7.0 15.6 0.00 0.00 0.00 36 1000.5
20260504191920 79 222 7.0 8.7 0.00 0.00 0.00 38 1000.5
20260504191418 79 230 7.0 9.6 0.00 0.00 0.00 37 1000.5
20260504190912 79 186 7.0 9.6 0.00 0.00 0.00 37 1000.6
20260504190408 79 129 6.1 11.3 0.00 0.00 0.00 36 1000.6
20260504185905 79 168 3.5 11.3 0.00 0.00 0.00 37 1000.7
20260504185403 78 237 7.8 12.2 0.00 0.00 0.00 36 1000.8
20260504184858 77 235 6.1 9.6 0.00 0.00 0.00 35 1001.0
20260504184354 79 252 9.6 16.5 0.00 0.00 0.00 34 1001.1
20260504183850 78 158 8.7 11.3 0.00 0.00 0.00 33 1000.7
20260504183348 78 199 10.4 13.9 0.00 0.00 0.00 33 1000.7
20260504182845 78 175 4.3 9.6 0.00 0.00 0.00 33 1000.9
20260504182343 77 268 7.8 8.7 0.00 0.00 0.00 32 1001.0
20260504181839 77 217 9.6 13.9 0.00 0.00 0.00 36 1001.0
20260504181337 77 183 9.6 16.5 0.00 0.00 0.00 36 1001.2
20260504180836 77 182 5.2 15.6 0.00 0.00 0.00 34 1001.1
20260504180334 77 228 6.1 8.7 0.00 0.00 0.00 34 1001.4
20260504175832 75 217 1.7 11.3 0.00 0.00 0.00 37 1001.3
20260504175328 76 232 8.7 13.0 0.00 0.00 0.00 36 1001.4
20260504174826 76 127 5.2 11.3 0.00 0.00 0.00 38 1001.4
20260504174323 76 237 5.2 13.9 0.00 0.00 0.00 37 1001.4
20260504173820 75 189 8.7 11.3 0.00 0.00 0.00 35 1001.5
20260504173317 75 164 3.5 9.6 0.00 0.00 0.00 40 1001.6
20260504172814 75 170 12.2 21.7 0.00 0.00 0.00 38 1001.5
20260504172310 74 169 4.3 9.6 0.00 0.00 0.00 40 1001.8
20260504171806 75 230 8.7 11.3 0.00 0.00 0.00 38 1001.7
20260504171304 75 172 7.0 8.7 0.00 0.00 0.00 41 1001.7
20260504170801 74 172 4.3 9.6 0.00 0.00 0.00 40 1001.9
20260504170258 74 222 7.8 12.2 0.00 0.00 0.00 40 1002.3
20260504160216 72 194 6.1 13.0 0.00 0.00 0.00 42 1003.0
20260504151144 70 168 2.6 7.0 0.00 0.00 0.00 48 1003.5
20260504150641 69 146 4.3 9.6 0.00 0.00 0.00 48 1003.7
20260504150138 69 225 5.2 8.7 0.00 0.00 0.00 49 1003.7
20260504141107 64 139 6.1 8.7 0.00 0.00 0.00 55 1004.3
20260504140603 64 186 5.2 7.0 0.00 0.00 0.00 56 1004.3
20260504130528 57 166 2.6 5.2 0.00 0.00 0.00 71 1004.9
20260504110415 47 135 0.9 5.2 0.00 0.00 0.00 85 1005.2
20260504100332 48 168 0.9 1.7 0.00 0.00 0.00 84 1005.3
20260504081725 49 138 0.9 1.7 0.00 0.00 0.00 85 1005.1
20260504081222 49 153 1.7 1.7 0.00 0.00 0.00 83 1005.1
20260504080718 49 166 3.5 3.5 0.00 0.00 0.00 83 1005.1
20260504080215 49 153 0.0 0.9 0.00 0.00 0.00 83 1005.0
20260504070142 53 187 1.7 3.5 0.00 0.00 0.00 74 1005.8
20260504050531 56 165 1.7 3.5 0.00 0.00 0.00 71 1006.7
20260504045525 56 153 3.5 5.2 0.00 0.00 0.00 71 1006.6
20260504045020 56 180 0.9 2.6 0.00 0.00 0.00 71 1006.9
20260504044518 56 183 3.5 5.2 0.00 0.00 0.00 70 1006.8
20260504044015 57 168 4.3 5.2 0.00 0.00 0.00 70 1006.9
20260504043512 57 169 1.7 3.5 0.00 0.00 0.00 69 1007.1
20260504043009 57 192 3.5 3.5 0.00 0.00 0.00 69 1006.8
20260504042506 57 151 1.7 5.2 0.00 0.00 0.00 68 1006.7
20260504042003 57 191 1.7 5.2 0.00 0.00 0.00 67 1006.9
20260504041459 58 147 4.3 6.1 0.00 0.00 0.00 66 1006.7
20260504040954 58 175 1.7 6.1 0.00 0.00 0.00 66 1006.6
20260504040453 58 124 1.7 7.0 0.00 0.00 0.00 66 1006.7
20260504035948 58 152 2.6 5.2 0.00 0.00 0.00 65 1006.7
20260504035446 58 166 4.3 7.0 0.00 0.00 0.00 65 1006.6
20260504034942 59 167 2.6 3.5 0.00 0.00 0.00 65 1006.7
20260504034440 59 167 3.5 6.1 0.00 0.00 0.00 64 1006.6
20260504033937 59 149 3.5 6.1 0.00 0.00 0.00 64 1006.7
20260504033435 59 142 4.3 5.2 0.00 0.00 0.00 63 1006.9
20260504032932 59 158 3.5 5.2 0.00 0.00 0.00 63 1007.1
20260504032428 59 152 3.5 5.2 0.00 0.00 0.00 63 1007.1
20260504031925 59 193 3.5 5.2 0.00 0.00 0.00 63 1007.2
20260504031422 59 177 1.7 2.6 0.00 0.00 0.00 64 1007.2
20260504030919 59 158 2.6 3.5 0.00 0.00 0.00 63 1007.2
20260504030416 59 149 1.7 2.6 0.00 0.00 0.00 63 1007.3
20260504025912 60 174 3.5 5.2 0.00 0.00 0.00 62 1007.2
20260504025409 60 164 1.7 3.5 0.00 0.00 0.00 62 1007.2
20260504024906 60 172 0.9 3.5 0.00 0.00 0.00 62 1007.5
20260504024403 60 145 1.7 2.6 0.00 0.00 0.00 62 1007.3
20260504023900 60 157 3.5 6.1 0.00 0.00 0.00 61 1007.4
20260504023356 60 155 1.7 2.6 0.00 0.00 0.00 61 1007.2